[[{"header":{"parameterUnit":"m.s-1","parameterCategory":1,"la1":30.2991,"la2":30.254,"lo1":-89.0895,"lo2":-89.0444,"dy":0.0017,"dx":0.0017,"nx":28,"ny":28,"refTime":"2023-10-14T03:00:00:Z","depth":0,"parameterNumber":2,"parameterNumberName":"U-component_of_WINDS"},"data":[0,0,0,0,0,0,0,0,0,0,0,0,0,0,0,0,0,0,0,0,0,0,0,0,0,0,0,0,0,0,0,0,0,0,0,0,0,0,0,0,0,0,0,0,0,0,0,0,0,0,0,0,0,0,0,0,0,0,-1.3811,-1.3811,0,-1.3824,-1.3824,-1.3824,-1.3802,-1.3801,-1.38,-1.38,-1.3811,-1.3812,-1.3813,0,0,0,0,0,0,0,0,0,0,0,0,0,-1.3767,-1.3768,-1.3811,-1.3811,-1.3811,-1.3824,-1.3824,-1.3824,-1.3802,-1.3801,-1.38,-1.3799,-1.3811,-1.3812,-1.3813,0,0,0,0,0,0,0,0,0,0,0,0,0,-1.3784,-1.3769,-1.3811,-1.3801,-1.3801,-1.3824,-1.3824,-1.3824,-1.3802,-1.3801,-1.38,-1.3799,-1.3811,-1.3812,-1.3813,-1.3845,0,0,-1.3818,-1.3819,0,0,0,0,0,0,0,0,-1.3783,-1.3785,-1.3803,-1.3802,-1.3801,-1.381,-1.3813,-1.3831,-1.3802,-1.3802,-1.38,-1.3798,-1.3812,-1.3813,-1.3818,-1.3846,-1.3846,-1.3818,-1.3819,-1.382,-1.382,0,0,0,0,0,0,0,-1.3782,-1.3785,-1.3816,-1.3803,-1.3802,-1.3797,-1.3798,-1.3816,-1.3813,-1.3802,-1.38,-1.3802,-1.3811,-1.3816,-1.3818,-1.3847,-1.3818,-1.382,-1.382,-1.3821,-1.3906,-1.3907,0,0,0,0,0,0,-1.3782,-1.3784,-1.3815,-1.3816,-1.3789,-1.3799,-1.38,-1.3808,-1.3812,-1.3812,-1.3803,-1.3801,-1.3814,-1.3816,-1.3818,-1.3858,-1.382,-1.3821,-1.3822,-1.3904,-1.3906,-1.3908,0,0,0,0,0,0,-1.3781,-1.3785,-1.3815,-1.38,-1.3803,-1.3801,-1.381,-1.3809,-1.3815,-1.3813,-1.3813,-1.3809,-1.3814,-1.3816,-1.384,-1.3858,-1.3822,-1.3823,-1.3903,-1.3905,-1.3907,-1.3937,0,0,0,0,0,0,-1.378,-1.3785,-1.3796,-1.38,-1.3804,-1.3836,-1.3811,-1.381,-1.3817,-1.3815,-1.3819,-1.3819,-1.3813,-1.3838,-1.3841,-1.386,-1.3824,-1.3901,-1.3904,-1.3906,-1.3935,-1.394,-1.3945,0,0,0,0,0,-1.3778,-1.3803,-1.3797,-1.3801,-1.3818,-1.3837,-1.3839,-1.3832,-1.3819,-1.3831,-1.3831,-1.3818,-1.3856,-1.384,-1.3844,-1.3863,-1.39,-1.3903,-1.3906,-1.3932,-1.3939,-1.3945,0,0,0,0,0,0,-1.3799,-1.3803,-1.3796,-1.3823,-1.383,-1.3833,-1.3847,-1.3839,-1.3849,-1.3847,-1.3838,-1.3839,-1.3865,-1.3866,-1.3849,-1.3897,-1.3876,-1.388,-1.3894,-1.3901,-1.3906,-1.3905,-1.3826,0,0,0,0,0,-1.3807,-1.3822,-1.3824,-1.3848,-1.3852,-1.385,-1.3857,-1.3852,-1.3859,-1.3861,-1.3863,-1.3869,-1.3883,-1.3892,-1.3904,-1.3935,-1.3937,-1.3951,-1.3956,-1.396,-1.3963,-1.3983,-1.399,-1.3917,-1.3917,-1.3917,0,0,-1.3823,-1.3827,-1.3836,-1.3852,-1.3857,-1.3873,-1.3852,-1.3869,-1.3881,-1.3863,-1.3887,-1.3889,-1.3896,-1.3924,-1.3937,-1.3926,-1.3984,-1.3964,-1.3967,-1.3968,-1.3987,-1.3994,-1.4,-1.3919,-1.3919,-1.3919,0,0,-1.3861,-1.3864,-1.3886,-1.3892,-1.3901,-1.39,-1.3905,-1.3911,-1.3912,-1.3935,-1.3924,-1.3938,-1.3961,-1.3968,-1.3974,-1.402,-1.4009,-1.4024,-1.405,-1.407,-1.4075,-1.4081,-1.4099,-1.4105,-1.4028,-1.4028,-1.4028,0,-1.3879,-1.3903,-1.3897,-1.3917,-1.3925,-1.3912,-1.3935,-1.3941,-1.3953,-1.3959,-1.3948,-1.3979,-1.3983,-1.4014,-1.4026,-1.4031,-1.4038,-1.4023,-1.4075,-1.408,-1.4085,-1.4102,-1.4109,-1.4029,-1.4029,-1.4029,-1.4029,0,-1.3926,-1.3944,-1.396,-1.3974,-1.3984,-1.4005,-1.4004,-1.4015,-1.401,-1.4011,-1.4037,-1.4042,-1.4056,-1.4064,-1.4058,-1.4095,-1.4089,-1.4077,-1.4055,-1.4094,-1.411,-1.4116,-1.4032,-1.4031,-1.4031,-1.403,0,0,-1.3974,-1.3989,-1.3995,-1.4003,-1.4013,-1.4026,-1.4048,-1.4064,-1.4075,-1.4084,-1.4103,-1.4125,-1.4115,-1.4123,-1.4118,-1.4135,-1.4174,-1.4121,-1.4121,-1.4132,-1.4219,-1.4229,-1.4236,-1.4168,-1.4169,-1.417,-1.4219,0,-1.4013,-1.4051,-1.4049,-1.4084,-1.4102,-1.4092,-1.4111,-1.412,-1.4123,-1.4138,-1.4141,-1.4157,-1.4142,-1.4147,-1.4163,-1.4166,-1.4192,-1.4162,-1.4186,-1.4187,-1.4185,-1.4244,-1.4253,-1.4299,-1.4225,-1.4226,-1.4227,0,-1.4062,-1.4077,-1.4115,-1.4127,-1.4134,-1.4151,-1.4167,-1.4182,-1.4193,-1.4194,-1.4205,-1.4199,-1.4223,-1.4202,-1.4235,-1.4216,-1.4226,-1.4229,-1.4231,-1.4233,-1.4209,-1.4249,-1.4313,-1.432,-1.4236,-1.4235,-1.4235,0,-1.4096,-1.4124,-1.4152,-1.4158,-1.4172,-1.4185,-1.4191,-1.4202,-1.4213,-1.4228,-1.4235,-1.4252,-1.4261,-1.4275,-1.4274,-1.4259,-1.4309,-1.4287,-1.4311,-1.4311,-1.4321,-1.4321,-1.4389,-1.4327,-1.4327,-1.4327,-1.4327,0,-1.414,-1.4164,-1.4167,-1.4184,-1.4212,-1.421,-1.4238,-1.4243,-1.4253,-1.4272,-1.4264,-1.4281,-1.428,-1.4298,-1.4298,-1.4327,-1.4331,-1.4333,-1.4332,-1.4334,-1.4334,-1.434,-1.4337,-1.4329,-1.4328,-1.4328,-1.4328,0,-1.4181,-1.4184,-1.4214,-1.4226,-1.423,-1.425,-1.4261,-1.4277,-1.4281,-1.4304,-1.431,-1.4315,-1.4337,-1.4338,-1.4362,-1.4362,-1.4398,-1.4394,-1.4394,-1.4394,-1.4418,-1.4416,-1.4493,-1.4504,-1.4435,-1.4435,-1.4436,0,-1.4209,-1.4227,-1.4243,-1.4256,-1.4263,-1.4283,-1.4295,-1.4296,-1.4309,-1.4326,-1.4341,-1.4363,-1.4379,-1.4415,-1.4421,-1.444,-1.4437,-1.4463,-1.4439,-1.4442,-1.4439,-1.4438,-1.4441,-1.4467,-1.4468,-1.4468,-1.4469,0,-1.4258,-1.426,-1.4278,-1.4298,-1.4314,-1.4329,-1.4343,-1.4354,-1.4356,-1.4372,-1.4395,-1.4408,-1.4435,-1.4457,-1.4477,-1.4484,-1.4478,-1.4477,-1.4483,-1.4485,-1.4485,-1.4487,-1.4408,-1.4474,-1.4474,-1.4473,-1.4473,-1.4473,-1.4294,-1.4312,-1.4327,-1.4348,-1.436,-1.4375,-1.4392,-1.4399,-1.4418,-1.4441,-1.444,-1.4466,-1.4481,-1.4507,-1.4517,-1.4538,-1.4529,-1.4538,-1.4541,-1.4543,-1.4547,-1.4482,-1.4541,-1.4541,-1.4541,-1.4541,-1.4541,0,-1.4345,-1.4355,-1.4375,-1.4397,-1.4415,-1.4409,-1.4426,-1.4441,-1.4464,-1.4479,-1.4497,-1.4525,-1.4547,-1.4557,-1.4579,-1.4594,-1.4592,-1.46,-1.4599,-1.4602,-1.4552,-1.4545,-1.4602,-1.4602,-1.4602,-1.4602,-1.4602,-1.4602,-1.4373,-1.4404,-1.4408,-1.4445,-1.4455,-1.4481,-1.4492,-1.4506,-1.4518,-1.4551,-1.457,-1.4576,-1.459,-1.4614,-1.4635,-1.4637,-1.4646,-1.4656,-1.4657,-1.4611,-1.4605,-1.4599,-1.4592,-1.4658,-1.4658,-1.4705,-1.4705,-1.4706]},{"header":{"parameterUnit":"m.s-1","parameterCategory":1,"la1":30.2991,"la2":30.254,"lo1":-89.0895,"lo2":-89.0444,"dy":0.0017,"dx":0.0017,"nx":28,"ny":28,"refTime":"2023-10-14T03:00:00:Z","depth":0,"parameterNumber":3,"parameterNumberName":"V-component_of_WINDS"},"data":[0,0,0,0,0,0,0,0,0,0,0,0,0,0,0,0,0,0,0,0,0,0,0,0,0,0,0,0,0,0,0,0,0,0,0,0,0,0,0,0,0,0,0,0,0,0,0,0,0,0,0,0,0,0,0,0,0,0,1.2429,1.2426,0,1.2197,1.2195,1.2192,1.2062,1.2061,1.2061,1.206,1.182,1.1814,1.1808,0,0,0,0,0,0,0,0,0,0,0,0,0,1.2755,1.2749,1.2429,1.2426,1.2423,1.2198,1.2195,1.2191,1.2062,1.2061,1.2061,1.206,1.1822,1.1815,1.1808,0,0,0,0,0,0,0,0,0,0,0,0,0,1.2577,1.2748,1.243,1.2331,1.232,1.2198,1.2195,1.2191,1.2062,1.2061,1.2061,1.206,1.1824,1.1815,1.1807,1.1763,0,0,1.1779,1.1775,0,0,0,0,0,0,0,0,1.2588,1.2565,1.2349,1.2338,1.2325,1.2158,1.2221,1.2047,1.2062,1.216,1.206,1.206,1.1933,1.1915,1.1872,1.1752,1.1742,1.1778,1.1773,1.1769,1.1766,0,0,0,0,0,0,0,1.26,1.2575,1.2337,1.2346,1.2331,1.2298,1.2272,1.2188,1.2052,1.2151,1.2141,1.2116,1.1926,1.1882,1.1866,1.1738,1.1778,1.177,1.1765,1.1761,1.1568,1.1568,0,0,0,0,0,0,1.2629,1.2586,1.2345,1.233,1.2458,1.2292,1.2263,1.2212,1.2053,1.2028,1.2117,1.2111,1.1897,1.1877,1.1857,1.1793,1.1769,1.176,1.1755,1.1568,1.1568,1.1568,0,0,0,0,0,0,1.2636,1.2608,1.2354,1.2455,1.242,1.2287,1.2231,1.2208,1.2163,1.2027,1.2002,1.2096,1.1896,1.187,1.1787,1.1783,1.1756,1.1748,1.1567,1.1568,1.1568,1.1668,0,0,0,0,0,0,1.2646,1.2612,1.2595,1.2456,1.2415,1.229,1.2231,1.2204,1.2148,1.2138,1.2001,1.1978,1.1893,1.1801,1.1778,1.177,1.1741,1.1567,1.1568,1.1568,1.1664,1.1671,1.1678,0,0,0,0,0,1.2658,1.2632,1.2595,1.2566,1.2392,1.229,1.2266,1.2171,1.2149,1.2129,1.2042,1.1982,1.1788,1.1794,1.1767,1.1756,1.1567,1.1568,1.1568,1.1661,1.167,1.1678,0,0,0,0,0,0,1.2773,1.2612,1.2569,1.2497,1.2408,1.2268,1.2241,1.2184,1.2098,1.2092,1.1977,1.1947,1.1875,1.1808,1.1817,1.1705,1.1671,1.1666,1.1751,1.1758,1.1765,1.1781,1.1734,0,0,0,0,0,1.279,1.2722,1.2585,1.2535,1.2492,1.2375,1.2327,1.2261,1.2164,1.2125,1.2031,1.1938,1.1855,1.1804,1.1721,1.1655,1.1621,1.1634,1.1641,1.1647,1.1643,1.1601,1.1604,1.157,1.157,1.157,0,0,1.2825,1.2728,1.2692,1.2555,1.2478,1.2408,1.2344,1.2273,1.2219,1.2114,1.2029,1.1958,1.1846,1.1771,1.1734,1.1713,1.1646,1.1648,1.1654,1.1646,1.1602,1.1605,1.1608,1.1571,1.1571,1.1571,0,0,1.285,1.2772,1.272,1.2645,1.253,1.2452,1.244,1.2308,1.2256,1.2171,1.2089,1.2024,1.1886,1.1808,1.1751,1.1749,1.1689,1.1725,1.1759,1.1719,1.1722,1.1723,1.1719,1.172,1.1722,1.1722,1.1723,0,1.2907,1.2799,1.2701,1.2634,1.2575,1.2478,1.2424,1.2355,1.2219,1.218,1.2159,1.1982,1.1901,1.1805,1.1804,1.1763,1.1743,1.1738,1.173,1.173,1.173,1.1725,1.1724,1.1727,1.1727,1.1726,1.1726,0,1.2873,1.28,1.2772,1.2643,1.2581,1.2522,1.2412,1.2362,1.2302,1.2226,1.2139,1.2038,1.1931,1.1905,1.1846,1.18,1.1791,1.1752,1.1715,1.174,1.1733,1.173,1.1734,1.1733,1.1731,1.173,0,0,1.2962,1.278,1.2771,1.2711,1.2577,1.2517,1.2453,1.235,1.2307,1.2217,1.2158,1.2044,1.2006,1.1941,1.1873,1.1839,1.1839,1.1803,1.1798,1.181,1.178,1.1808,1.1807,1.1801,1.18,1.1799,1.1788,0,1.2966,1.2845,1.2755,1.2668,1.2597,1.2505,1.2448,1.2359,1.2287,1.2215,1.2135,1.2054,1.2013,1.1973,1.1935,1.1848,1.1831,1.1847,1.1742,1.1739,1.1769,1.1804,1.1833,1.1827,1.1785,1.1785,1.1784,0,1.2954,1.2867,1.2773,1.2645,1.2612,1.2563,1.246,1.2395,1.2292,1.2241,1.217,1.2099,1.2025,1.1998,1.1893,1.1906,1.1858,1.1808,1.1806,1.1789,1.1761,1.1785,1.1823,1.1821,1.178,1.178,1.178,0,1.3024,1.2884,1.2809,1.2761,1.2611,1.2578,1.2514,1.241,1.2354,1.2264,1.2226,1.213,1.2076,1.2002,1.1907,1.1896,1.181,1.1776,1.1764,1.1766,1.1747,1.1749,1.1775,1.1723,1.1723,1.1723,1.1723,0,1.3035,1.2981,1.2838,1.2792,1.2728,1.2624,1.2563,1.2491,1.24,1.2337,1.2252,1.2194,1.2073,1.2001,1.1926,1.1849,1.1826,1.1782,1.1762,1.1787,1.1792,1.1751,1.1748,1.1722,1.1722,1.1722,1.1722,0,1.3101,1.3004,1.2916,1.2782,1.2747,1.2705,1.2589,1.254,1.2464,1.2385,1.236,1.224,1.215,1.2049,1.1926,1.1875,1.1802,1.1775,1.1837,1.1825,1.1817,1.1818,1.1815,1.1808,1.1765,1.1765,1.1766,0,1.3113,1.3069,1.293,1.2882,1.2821,1.2745,1.2687,1.2584,1.2526,1.2406,1.2371,1.2275,1.2192,1.2053,1.1953,1.1858,1.1826,1.1832,1.1811,1.1838,1.1822,1.1825,1.1819,1.1836,1.1837,1.1838,1.1839,0,1.3143,1.3098,1.3018,1.2921,1.2854,1.2773,1.2688,1.2653,1.2533,1.2473,1.2381,1.2317,1.2191,1.2096,1.1989,1.1921,1.1859,1.1847,1.1838,1.1862,1.1898,1.1876,1.1849,1.1846,1.1846,1.1845,1.1845,1.1844,1.318,1.3135,1.3031,1.2944,1.287,1.2792,1.2739,1.2657,1.2578,1.2468,1.2412,1.232,1.2217,1.2066,1.2001,1.1926,1.1906,1.1895,1.1891,1.1889,1.1895,1.1914,1.1907,1.1906,1.1906,1.1906,1.1905,0,1.3203,1.3131,1.3053,1.2937,1.2868,1.2819,1.2722,1.2668,1.2588,1.2498,1.2419,1.2312,1.2219,1.2114,1.2014,1.1975,1.1944,1.1952,1.1952,1.1936,1.192,1.1936,1.1978,1.1978,1.1978,1.1978,1.1978,1.1978,1.3206,1.3128,1.307,1.2953,1.2881,1.2791,1.2739,1.2667,1.2594,1.2479,1.2402,1.2335,1.2237,1.213,1.2043,1.2014,1.198,1.1996,1.1958,1.1944,1.1938,1.1932,1.1946,1.199,1.199,1.198,1.198,1.198]}]]